www.pogodaiklimat.ru

Погода и климат >> Архив погоды >> Мексика >> Ejido Nuevo Leon


ПОГОДА в Ejido Nuevo Leon

  • Прогноз погоды в Ejido Nuevo Leon
  • Монитор погоды в Ejido Nuevo Leon
  • Климат города

АРХИВ ПОГОДЫ в Ejido Nuevo Leon

Время (UTC), дата Ветер
(напр.,м/с)
 
Видим.   Явления Облачность Т
(С)
Тd
(С)
f
(%)
Тe
(С)
Тes
(С)
Комфортность P
(гПа)
Po
(гПа)
Тmin
(С)
Tmax
(С)
R
(мм)
R24
(мм)
S
(см)
03 14.11 З 1 2000 м ясно +12.4 +10.8 90 +12 +12 1028.6 1027.2
06 14.11 СЗ 1 2000 м ясно +9.1 +8.0 93 +8 +8 1028.7 1027.3 +9.6 +22.0
09 14.11 С 1 2000 м ясно +6.8 +4.5 85 +6 +6 1027.7 1026.3
12 14.11 С 2 2000 м ясно +8.2 +2.9 69 +7 +7 1026.9 1025.5 +6.5 +22.0
15 14.11 СЗ 1 10 км 5/0
[As trans]
+8.6 +5.0 78 +8 +8 1027.7 1026.3
18 14.11 З 2 10 км 6/0
[Ac trans]
+15.4 +4.6 48 +15 +20 1027.9 1026.5 +6.5 +22.0
21 14.11 С 3 10 км 4/0
[Ac trans]
+23.2 +8.9 40 +25 +29 комфорт 1024.2 1022.8
00 15.11 С 3 10 км ясно +22.6 +10.0 45 +24 +25 комфорт 1022.3 1020.9 +7.4 +24.1
03 15.11 З 1 2000 м ясно +14.2 +12.3 88 +15 +15 1022.3 1020.9
06 15.11 С 1 2000 м ясно +10.0 +6.5 79 +10 +10 1022.1 1020.7 +7.4 +24.1
09 15.11 З 1 2000 м ясно +7.8 +6.5 91 +7 +7 1020.9 1019.5
15 15.11 З 1 10 км ясно +6.6 +3.7 82 +6 +6 1020.9 1019.5
18 15.11 СЗ 2 10 км ясно +21.0 +9.3 47 +23 +30 комфорт 1020.8 1019.4 +4.8 +21.5
21 15.11 СЗ 2 10 км ясно +25.3 +15.9 56 +29 +36 душно 1018.0 1016.6
00 16.11 З 2 10 км 4/0
[Ac trans]
+24.2 +19.2 74 +29 +30 душно 1016.8 1015.4 +4.8 +26.0
03 16.11 СЗ 1 2000 м ясно +16.1 +14.9 93 +17 +17 1017.1 1015.8
06 16.11 СВ 1 2000 м ясно +10.6 +9.4 92 +10 +10 1017.1 1015.8 +4.8 +26.0
09 16.11 В 1 2000 м ясно +8.5 +6.1 85 +8 +8 1016.6 1015.2
12 16.11 СВ 1 2000 м ясно +6.2 +4.3 88 +5 +5 1016.2 1014.8 +5.5 +26.0
15 16.11 З 1 10 км ясно +5.9 +3.7 86 +5 +5 1016.9 1015.5
18 16.11 ЮВ 1 10 км ясно +21.4 +5.3 35 +22 +29 комфорт 1017.4 1016.0 +4.5 +26.0
21 16.11 С 2 10 км ясно +26.2 +8.9 34 +27 +33 жарко 1015.0 1013.6
00 17.11 С 2 10 км ясно +25.2 +14.4 51 +28 +28 жарко 1014.2 1012.9 +4.5 +26.2
03 17.11 ЮЗ 1 2000 м ясно +15.0 +14.3 96 +15 +15 1014.6 1013.3
15 17.11 В 1 10 км ясно +4.0 +3.5 97 +2 +3 1017.2 1015.8
18 17.11 ЮВ 2 10 км ясно +18.2 +6.9 48 +19 +25 1017.9 1016.5 +4.0 +20.5
21 17.11 ЮВ 2 10 км ясно +25.6 +12.4 44 +27 +34 жарко 1015.7 1014.3
00 18.11 ЮВ 2 10 км ясно +24.2 +12.3 47 +26 +26 жарко 1015.1 1013.7 +4.0 +27.0
03 18.11 Ю 2 2000 м ясно +18.0 +13.8 76 +19 +19 1015.9 1014.6
06 18.11 Ю 1 2000 м ясно +19.2 +13.8 71 +22 +22 комфорт 1016.8 1015.5 +27.0
09 18.11 ЮВ 1 2000 м ясно +11.6 +10.4 92 +11 +11 1017.0 1015.6
12 18.11 СВ 1 2000 м ясно +10.0 +9.6 97 +9 +9 1017.6 1016.2 +9.1 +24.0
15 18.11 В 1 10 км ясно +11.4 +9.0 85 +11 +11 1019.1 1017.7
18 18.11 В 1 10 км ясно +19.3 +15.4 78 +22 +29 комфорт 1020.0 1018.6 +9.1 +20.8
21 18.11 С 1 10 км ясно +24.9 +20.1 75 +31 +39 очень
душно
1017.4 1016.0
00 19.11 СЗ 1 10 км ясно +24.5 +20.7 79 +30 +31 очень
душно
1016.7 1015.3 +9.1 +26.5
03 19.11 З 1 200 м ясно +17.2 +16.2 94 +18 +18 1017.5 1016.2
06 19.11 СЗ 1 200 м ясно +13.9 +13.0 94 +14 +14 1018.6 1017.3 +26.5
09 19.11 СЗ 1 200 м ясно +11.2 +10.4 95 +11 +11 1018.4 1017.0
12 19.11 СЗ 1 200 м ясно +9.9 +9.3 96 +9 +9 1018.3 1016.9 +9.5 +26.5
15 19.11 СЗ 1 10 км ясно +14.6 +7.9 64 +15 +15 1019.5 1018.1
18 19.11 СЗ 2 10 км ясно +20.8 +15.4 71 +25 +31 комфорт 1019.5 1018.1 +7.5 +21.1
21 19.11 С 2 10 км 4/0
[Ac trans]
+23.9 +17.3 67 +28 +33 душно 1017.8 1016.4
00 20.11 СЗ 2 10 км 4/0
[Ac trans]
+23.1 +18.1 73 +29 +29 очень
душно
1016.5 1015.1 +17.5 +25.1
03 20.11 С 2 2000 м ясно +17.1 +16.3 95 +17 +17 1016.2 1014.9
06 20.11 СЗ 1 2000 м ясно +16.2 +14.4 89 +17 +17 1017.0 1015.7 +7.5 +25.1
09 20.11 СЗ 2 2000 м ясно +13.0 +12.3 96 +12 +12 1015.9 1014.5
12 20.11 СЗ 2 2000 м ясно +12.1 +11.5 96 +11 +11 1015.2 1013.8 +11.8 +25.1
15 20.11 СЗ 2 10 км ясно +11.5 +10.5 94 +10 +10 1016.1 1014.7
18 20.11 С 2 10 км ясно +21.5 +14.5 64 +24 +31 комфорт 1016.9 1015.5 +11.5 +22.1
21 20.11 С 2 10 км ясно +25.6 +17.2 60 +30 +36 душно 1014.8 1013.4

 

Местоположение метеостанции Ejido Nuevo Leon (Мексика): широта 32.40 долгота -115.10 высота над уровнем моря 11 м.

В архиве по умолчанию представлена погода в Ejido Nuevo Leon за последнюю неделю. Архивные данные за месяц целиком и за предыдущие месяцы, начиная с января 2011 года, Вы можете получить, выбрав интересующий диапазон дат из раскрывающегося списка и нажав кнопку "Ввод!".


*Определитесь, кто Вы:
робот инопланетянин человек

Внимание! Время в таблицах - всемирное. Для получения местного времени необходимо прибавить поправку, которая в Ejido Nuevo Leon равна -8 ч.

Смотрите также архив погоды в соседних городах и на ближайших метеорологических станциях:

Погода в San Felipe (Мексика) (155 км)
Погода в Puerto Penasco (Мексика) (191 км)
Погода в Altar Son (Мексика) (362 км)
Погода в Hermosillo (Мексика) (534 км)
Погода в Hermosillo la Magna (Мексика) (542 км)
Погода в Pilares de Nacoz (Мексика) (562 км)
Погода в Santa Rosalia (Мексика) (632 км)
Погода в Guaymas (Мексика) (643 км)
Погода в Empalme (Мексика) (651 км)
Погода в Nueva Casas Grandes (Мексика) (720 км)

Пояснения к столбцам:

Ветер - указаны скорость ветра в м/с - средняя за 10 мин, порывы в срок и между сроками (в фигурных скобках) и направление, откуда дует ветер: С - северный, СВ - северо-восточный, В - восточный, ЮВ - юго-восточный, Ю - южный, ЮЗ - юго-западный, З - западный, СЗ - северо-западный.
Видимость - горизонтальная дальность видимости в метрах или километрах. При видимости от 1 до 10 км при отсутствии осадков обычно наблюдается дымка, при ухудшении видимости до 1 км и менее - туман. В сухую погоду видимость может ухудшаться дымом, пылью или мглою.
Явления - указаны атмосферные явления, наблюдавшиеся в срок или в последний час перед сроком; фигурными скобками обозначены явления, наблюдавшиеся между сроками (за 1-3 часа до срока); квадратными скобками обозначены град или гололедные отложения с указанием их диаметра в мм.
Облачность - указаны через наклонную черту общая и нижняя облачность в баллах и высота нижней границы облаков в метрах; квадратными скобками обозначены формы облаков: Ci - перистые, Cs - перисто-слоистые, Cc - перисто-кучевые, Ac - высококучевые, As - высокослоистые, Sc - слоисто-кучевые, Ns - слоисто-дождевые, Cu - кучевые, Cb - кучево-дождевые. Подробнее классификацию облаков см. в Атласе облаков (PDF).
T - Температура воздуха - температура, измеренная на высоте 2 м над землей.
Td - Температура точки росы - температура, при понижении до которой содержащийся в воздухе водяной пар достигнет насыщения.
f - Относительная влажность воздуха - влажноcть воздуха, измеренная на высоте 2 м над землей.
Te - Эффективная температура - температура, которую ощущает одетый по сезону человек в тени. Характеристика душности погоды. При расчете учитывается влияние влажности воздуха и скорости ветра на теплоощущения человека.
Tes - Эффективная температура на солнце - температура, которую ощущает человек, с поправкой на солнечный нагрев. Характеристика знойности погоды. Зависит от высоты солнца над горизонтом, облачности и скорости ветра. Ночью, в пасмурную погоду, а также при ветре 12 м/с и более поправка равна нулю.
P - Атмосферное давление - приведенное к уровню моря атмосферное давление.
Po - Атмосферное давление - измеренное на уровне метеостанции атмосферное давление.
Tmin - Минимальная температура - минимум температуры воздуха на высоте 2 м над землей.
Tmax - Максимальная температура - максимум температуры воздуха на высоте 2 м над землей.
R - Количество осадков - Количество выпавших осадков за период времени, мм. При наведении курсора мыши на число - период времени, за который выпало указанное количество осадков.
R24 - Количество осадков - Количество выпавших осадков за 24 часа, мм.
S - Снежный покров - Высота снежного покрова, см. При наведении курсора мыши на число - состояние снежного покрова и степень покрытия местности в баллах.